| time (UTC) | temp F | wind direction | speed MPH | gust MPH | rain 1hr in | rain 24hr in | rain mn in | humidity % | barometer mb |
| 20260508050054 | 50 | 0 | 0.0 | 0.0 | 0.00 | 0.04 | 0.00 | 74 | 1009.3 |
| 20260508044600 | 50 | 0 | 0.0 | 1.0 | 0.00 | 0.04 | 0.04 | 73 | 1009.3 |
| 20260508043056 | 50 | 0 | 0.0 | 1.0 | 0.00 | 0.04 | 0.04 | 74 | 1009.2 |
| 20260508041552 | 49 | 0 | 0.0 | 0.0 | 0.00 | 0.04 | 0.04 | 74 | 1009.0 |
| 20260508040055 | 49 | 0 | 0.0 | 2.0 | 0.00 | 0.04 | 0.04 | 76 | 1009.0 |
| 20260508034552 | 48 | 0 | 0.0 | 0.0 | 0.00 | 0.04 | 0.04 | 78 | 1009.0 |
| 20260508033115 | 48 | 0 | 0.0 | 0.0 | 0.00 | 0.04 | 0.04 | 78 | 1008.9 |
| 20260508031554 | 49 | 0 | 0.0 | 0.0 | 0.00 | 0.04 | 0.04 | 78 | 1008.8 |
| 20260508030111 | 49 | 0 | 0.0 | 0.0 | 0.00 | 0.04 | 0.04 | 78 | 1008.8 |
| 20260508024620 | 49 | 0 | 0.0 | 0.0 | 0.00 | 0.04 | 0.04 | 77 | 1008.7 |
| 20260508023054 | 50 | 0 | 0.0 | 0.0 | 0.00 | 0.04 | 0.04 | 77 | 1008.5 |
| 20260508021600 | 50 | 0 | 0.0 | 0.0 | 0.00 | 0.04 | 0.04 | 77 | 1008.5 |
| 20260508020111 | 51 | 0 | 0.0 | 1.0 | 0.00 | 0.04 | 0.04 | 77 | 1008.3 |
| 20260508014613 | 51 | 0 | 0.0 | 3.0 | 0.00 | 0.04 | 0.04 | 77 | 1008.2 |
| 20260508013108 | 52 | 159 | 0.0 | 1.0 | 0.00 | 0.04 | 0.04 | 77 | 1008.0 |
| 20260508011605 | 52 | 0 | 0.0 | 0.0 | 0.00 | 0.04 | 0.04 | 75 | 1007.9 |
| 20260508010115 | 53 | 0 | 0.0 | 0.0 | 0.00 | 0.04 | 0.04 | 72 | 1007.7 |
| 20260508004553 | 55 | 0 | 0.0 | 0.0 | 0.00 | 0.04 | 0.04 | 70 | 1007.7 |
| 20260508003105 | 55 | 0 | 0.0 | 1.0 | 0.00 | 0.04 | 0.04 | 68 | 1007.8 |
| 20260508001556 | 57 | 0 | 0.0 | 0.0 | 0.00 | 0.04 | 0.04 | 68 | 1007.7 |
| 20260508000056 | 56 | 0 | 0.0 | 0.0 | 0.00 | 0.04 | 0.04 | 69 | 1007.7 |
| 20260507234551 | 55 | 0 | 0.0 | 0.0 | 0.00 | 0.04 | 0.04 | 71 | 1007.7 |
| 20260507233056 | 55 | 0 | 0.0 | 2.0 | 0.00 | 0.04 | 0.04 | 71 | 1007.7 |
| 20260507231557 | 54 | 0 | 0.0 | 1.0 | 0.01 | 0.04 | 0.04 | 71 | 1008.0 |
| 20260507230055 | 54 | 0 | 0.0 | 1.0 | 0.02 | 0.04 | 0.04 | 73 | 1007.8 |
| 20260507224554 | 55 | 0 | 0.0 | 1.0 | 0.04 | 0.04 | 0.04 | 69 | 1008.3 |
| 20260507223051 | 52 | 281 | 0.0 | 2.0 | 0.04 | 0.04 | 0.04 | 72 | 1008.4 |
| 20260507221551 | 50 | 270 | 0.0 | 6.0 | 0.03 | 0.03 | 0.03 | 76 | 1008.7 |
| 20260507220055 | 53 | 313 | 1.0 | 6.0 | 0.01 | 0.01 | 0.01 | 70 | 1008.8 |
| 20260507214558 | 58 | 315 | 2.0 | 6.0 | 0.00 | 0.00 | 0.00 | 52 | 1008.3 |
| 20260507213058 | 60 | 271 | 1.0 | 9.0 | 0.00 | 0.00 | 0.00 | 49 | 1007.8 |
| 20260507211553 | 60 | 257 | 1.0 | 9.0 | 0.00 | 0.00 | 0.00 | 47 | 1007.8 |
| 20260507210058 | 60 | 289 | 1.0 | 8.0 | 0.00 | 0.00 | 0.00 | 46 | 1007.9 |
| 20260507204548 | 59 | 226 | 1.0 | 4.0 | 0.00 | 0.00 | 0.00 | 51 | 1007.9 |
| 20260507203048 | 59 | 11 | 3.0 | 10.0 | 0.00 | 0.00 | 0.00 | 52 | 1008.1 |
| 20260507201552 | 58 | 255 | 2.0 | 10.0 | 0.00 | 0.00 | 0.00 | 52 | 1008.5 |
| 20260507200055 | 57 | 294 | 2.0 | 11.0 | 0.00 | 0.00 | 0.00 | 54 | 1008.7 |
| 20260507194613 | 58 | 210 | 3.0 | 8.0 | 0.00 | 0.00 | 0.00 | 52 | 1009.1 |
| 20260507193053 | 57 | 201 | 2.0 | 11.0 | 0.00 | 0.00 | 0.00 | 53 | 1009.2 |
| 20260507191604 | 57 | 225 | 2.0 | 11.0 | 0.00 | 0.00 | 0.00 | 51 | 1009.5 |
| 20260507190054 | 59 | 278 | 2.0 | 8.0 | 0.00 | 0.00 | 0.00 | 45 | 1009.7 |
| 20260507184551 | 58 | 264 | 2.0 | 8.0 | 0.00 | 0.00 | 0.00 | 43 | 1009.5 |
| 20260507183103 | 59 | 215 | 2.0 | 7.0 | 0.00 | 0.00 | 0.00 | 42 | 1009.8 |
| 20260507181554 | 59 | 276 | 2.0 | 9.0 | 0.00 | 0.00 | 0.00 | 38 | 1010.0 |
| 20260507180056 | 60 | 271 | 1.0 | 8.0 | 0.00 | 0.00 | 0.00 | 37 | 1010.0 |
| 20260507174554 | 60 | 281 | 2.0 | 9.0 | 0.00 | 0.00 | 0.00 | 37 | 1010.3 |
| 20260507173100 | 59 | 277 | 1.0 | 9.0 | 0.00 | 0.00 | 0.00 | 39 | 1010.5 |
| 20260507171554 | 59 | 147 | 0.0 | 7.0 | 0.00 | 0.00 | 0.00 | 38 | 1011.0 |
| 20260507170056 | 58 | 260 | 1.0 | 7.0 | 0.00 | 0.00 | 0.00 | 38 | 1011.0 |
| 20260507164552 | 58 | 297 | 1.0 | 8.0 | 0.00 | 0.00 | 0.00 | 37 | 1011.3 |
| 20260507163051 | 57 | 143 | 0.0 | 4.0 | 0.00 | 0.00 | 0.00 | 38 | 1011.6 |
| 20260507161556 | 55 | 179 | 1.0 | 6.0 | 0.00 | 0.00 | 0.00 | 39 | 1012.0 |
| 20260507160052 | 56 | 0 | 2.0 | 6.0 | 0.00 | 0.00 | 0.00 | 39 | 1012.1 |
| 20260507154556 | 54 | 269 | 0.0 | 2.0 | 0.00 | 0.00 | 0.00 | 41 | 1012.2 |
| 20260507153104 | 54 | 0 | 1.0 | 4.0 | 0.00 | 0.00 | 0.00 | 43 | 1012.5 |
| 20260507151552 | 53 | 299 | 0.0 | 2.0 | 0.00 | 0.00 | 0.00 | 43 | 1012.7 |
| 20260507144556 | 50 | 290 | 1.0 | 3.0 | 0.00 | 0.00 | 0.00 | 46 | 1012.9 |
| 20260507143105 | 50 | 251 | 0.0 | 5.0 | 0.00 | 0.00 | 0.00 | 47 | 1013.2 |
| 20260507141551 | 48 | 285 | 0.0 | 3.0 | 0.00 | 0.00 | 0.00 | 48 | 1013.2 |
| 20260507140100 | 48 | 288 | 0.0 | 2.0 | 0.00 | 0.00 | 0.00 | 49 | 1013.2 |
| 20260507134556 | 47 | 0 | 0.0 | 4.0 | 0.00 | 0.00 | 0.00 | 51 | 1013.5 |
| 20260507133054 | 46 | 294 | 0.0 | 3.0 | 0.00 | 0.00 | 0.00 | 52 | 1013.5 |
| 20260507131556 | 45 | 0 | 0.0 | 4.0 | 0.00 | 0.00 | 0.00 | 54 | 1013.5 |
| 20260507124557 | 42 | 0 | 0.0 | 0.0 | 0.00 | 0.00 | 0.00 | 63 | 1013.4 |
| 20260507123050 | 41 | 0 | 0.0 | 1.0 | 0.00 | 0.00 | 0.00 | 67 | 1013.5 |
| 20260507121555 | 39 | 0 | 0.0 | 1.0 | 0.00 | 0.00 | 0.00 | 70 | 1013.2 |
| 20260507120053 | 37 | 0 | 0.0 | 0.0 | 0.00 | 0.00 | 0.00 | 73 | 1013.3 |
| 20260507114551 | 36 | 0 | 0.0 | 1.0 | 0.00 | 0.00 | 0.00 | 75 | 1013.2 |
| 20260507113052 | 35 | 0 | 0.0 | 0.0 | 0.00 | 0.00 | 0.00 | 76 | 1013.1 |
| 20260507111551 | 35 | 0 | 0.0 | 0.0 | 0.00 | 0.00 | 0.00 | 76 | 1013.2 |
| 20260507110059 | 35 | 0 | 0.0 | 0.0 | 0.00 | 0.00 | 0.00 | 76 | 1013.2 |
| 20260507104600 | 34 | 0 | 0.0 | 0.0 | 0.00 | 0.00 | 0.00 | 77 | 1013.1 |
| 20260507103117 | 34 | 0 | 0.0 | 0.0 | 0.00 | 0.00 | 0.00 | 76 | 1013.1 |
| 20260507101551 | 35 | 0 | 0.0 | 0.0 | 0.00 | 0.00 | 0.00 | 76 | 1013.1 |
| 20260507100106 | 35 | 0 | 0.0 | 0.0 | 0.00 | 0.00 | 0.00 | 76 | 1013.2 |
| 20260507094553 | 35 | 0 | 0.0 | 0.0 | 0.00 | 0.00 | 0.00 | 75 | 1013.3 |
| 20260507093052 | 35 | 0 | 0.0 | 0.0 | 0.00 | 0.00 | 0.00 | 75 | 1013.2 |
| 20260507091557 | 35 | 0 | 0.0 | 0.0 | 0.00 | 0.00 | 0.00 | 75 | 1013.3 |
| 20260507090059 | 35 | 0 | 0.0 | 0.0 | 0.00 | 0.00 | 0.00 | 74 | 1013.3 |
| 20260507084604 | 36 | 0 | 0.0 | 0.0 | 0.00 | 0.00 | 0.00 | 73 | 1013.3 |
| 20260507083057 | 36 | 0 | 0.0 | 0.0 | 0.00 | 0.00 | 0.00 | 73 | 1013.4 |
| 20260507081559 | 37 | 0 | 0.0 | 0.0 | 0.00 | 0.00 | 0.00 | 72 | 1013.2 |
| 20260507080056 | 37 | 0 | 0.0 | 1.0 | 0.00 | 0.00 | 0.00 | 71 | 1013.2 |
| 20260507074605 | 37 | 0 | 0.0 | 0.0 | 0.00 | 0.00 | 0.00 | 71 | 1013.1 |
| 20260507073052 | 37 | 0 | 0.0 | 0.0 | 0.00 | 0.00 | 0.00 | 71 | 1013.2 |
| 20260507071605 | 38 | 0 | 0.0 | 0.0 | 0.00 | 0.00 | 0.00 | 70 | 1013.3 |
| 20260507070104 | 38 | 0 | 0.0 | 0.0 | 0.00 | 0.00 | 0.00 | 70 | 1013.5 |
| 20260507064557 | 38 | 0 | 0.0 | 1.0 | 0.00 | 0.00 | 0.00 | 69 | 1013.4 |
| 20260507063057 | 39 | 0 | 0.0 | 0.0 | 0.00 | 0.00 | 0.00 | 68 | 1013.5 |
| 20260507061554 | 39 | 0 | 0.0 | 0.0 | 0.00 | 0.00 | 0.00 | 67 | 1013.5 |
| 20260507054609 | 40 | 0 | 0.0 | 0.0 | 0.00 | 0.00 | 0.00 | 64 | 1013.6 |
| 20260507053107 | 40 | 0 | 0.0 | 0.0 | 0.00 | 0.00 | 0.00 | 62 | 1013.6 |
| 20260507051559 | 41 | 0 | 0.0 | 0.0 | 0.00 | 0.00 | 0.00 | 60 | 1013.6 |